Location: The Jewett Observatory
(46.7288°N, 117.1525°W)
Time: 02:28:58
(UTC-08:00)

Daily predictions for brighter satellites

Satellite Brightness Start Highest point End
(mag) Time Altitude Azimuth Time Altitude Azimuth Time Altitude Azimuth
Cosmos 2237 Rocket 3.6 03:20:39 35° E 03:20:39 35° E 03:25:17 10° NE
Cosmos 2333 Rocket 3.6 03:22:59 34° NE 03:22:59 34° NE 03:26:22 10° NE
USA 267 4.2 03:27:04 10° ENE 03:32:34 36° N 03:32:34 36° N
Cosmos 2061 Rocket 4.3 03:38:46 10° N 03:45:12 67° E 03:51:35 10° SSE
Cosmos 2219 Rocket 3.3 03:48:40 35° NNE 03:48:40 35° NNE 03:51:52 10° NNE
ATLAS 2AS CENTAUR R/B 4.5 03:45:11 22° NNW 03:46:39 23° N 03:52:50 10° NE
Cosmos 1980 4.0 03:52:37 64° E 03:52:37 64° E 03:57:46 10° NNE
SL-16 R/B 4.1 03:49:06 10° SSE 03:53:49 28° ESE 03:58:33 10° NE
Okean O Rocket 4.0 03:50:04 10° NNE 03:51:08 17° NNE 03:51:08 17° NNE
Cosmos 1486 Rocket 4.4 03:58:44 63° E 03:58:44 63° E 04:03:36 10° SSE
Meteor 2-10 Rocket 4.0 04:00:49 60° SSE 04:00:49 60° SSE 04:05:33 10° SSE
USA 229 DEB 4.2 03:57:16 39° NNW 03:59:50 57° NE 04:07:01 10° ESE
USA 229 4.3 03:57:21 38° NNW 03:59:56 57° NE 04:07:06 10° ESE
Cosmos 2242 Rocket 4.3 04:08:48 51° E 04:08:48 51° E 04:12:59 10° SSE
Cosmos 2016 Rocket 3.9 04:02:50 10° N 04:09:03 80° E 04:15:10 10° SSE
CZ-4B R/B 3.4 04:06:32 10° NNE 04:12:13 73° ESE 04:17:53 10° S
Cosmos 2297 3.9 04:12:15 45° N 04:13:59 68° ENE 04:19:41 10° SE
Cosmos 1892 4.4 04:10:45 10° SSE 04:14:11 33° E 04:17:36 10° NNE
DELTA 2 R/B (1) 4.4 04:15:58 39° S 04:16:18 39° S 04:21:28 10° ESE
COSMO-SKYMED 1 4.2 04:13:15 10° SE 04:17:10 34° ENE 04:20:59 11° N
ADEOS II 4.1 04:13:37 10° N 04:14:36 15° N 04:14:36 15° N
Cosmos 2369 Rocket 4.4 04:15:00 10° N 04:19:02 20° NE 04:23:05 10° E
PAYLOAD B 4.1 04:16:04 10° NNE 04:21:40 84° WNW 04:23:38 43° SSW
Cosmos 2278 Rocket 3.2 04:26:13 30° SSW 04:26:13 30° SSW 04:29:16 10° S
Cosmos 1331 Rocket 4.3 04:27:46 50° NNW 04:27:46 50° NNW 04:31:54 10° NNE
Cosmos 1000 Rocket 4.3 04:25:48 24° SSW 04:29:41 67° W 04:35:52 10° N
Cosmos 2173 Rocket 4.1 04:31:46 51° WSW 04:31:46 51° WSW 04:37:15 10° SSW
Cosmos 1862 Rocket 3.8 04:30:40 29° N 04:32:53 70° E 04:37:20 10° SSE
USA 116 4.4 04:30:53 10° SSE 04:36:07 89° WSW 04:41:33 10° NNW
Cosmos 1864 Rocket 4.4 04:30:46 10° N 04:37:08 88° W 04:43:22 10° S
EO 1 Del DPAF 4.0 04:33:28 10° SSE 04:37:12 52° ENE 04:39:01 27° N
Meteor 2-12 Rocket 4.3 04:33:20 10° N 04:39:26 89° E 04:45:29 10° S
Meteor 1-28 Rocket 4.3 04:36:27 10° S 04:38:41 34° S 04:38:41 34° S
Gbstr 26 Del rocket 2.9 04:41:14 70° NNW 04:41:18 70° NNW 04:45:20 10° ENE
In-Cosmos 22 Rocket 4.1 04:39:01 10° SSW 04:44:43 76° WNW 04:50:34 10° N
Cosmos 2084 Rocket 3.8 04:44:48 46° N 04:45:29 53° NE 04:49:16 10° ESE
Landsat 4 4.4 04:45:01 10° S 04:47:31 40° S 04:47:31 40° S
Lacrosse 5 rocket 3.6 04:47:36 10° S 04:51:30 27° SE 04:55:27 10° ENE
CZ-4B DEB 4.3 04:46:40 10° N 04:52:03 51° WNW 04:55:09 24° SW
SJ-6F 4.3 04:51:46 10° N 04:55:51 65° WNW 04:59:57 10° SSW
IRS-1C Rocket 4.1 04:54:00 10° N 04:59:08 54° WNW 05:04:15 10° SW
Cosmos 2233 Rocket 3.9 04:53:21 10° N 04:59:33 87° E 05:05:41 10° S
NOSS 0 Rocket 4.3 04:58:25 35° W 05:00:11 43° NW 05:06:04 10° NNE
Cosmos 1802 Rocket 4.4 04:58:52 28° NW 05:01:03 36° W 05:06:38 10° SSW
NOAA 6 4.1 04:58:01 10° NNE 05:03:10 78° ESE 05:08:17 10° S
Cosmos 2360 Rocket 4.3 05:04:10 11° NNW 05:04:10 11° NNW 05:05:03 10° NNW
Okean-O 2.7 04:59:27 10° NNE 05:03:55 77° ESE 05:08:20 10° S
Cosmos 2237 Rocket 2.6 05:02:33 34° W 05:04:08 42° NW 05:09:33 10° NNE
SKYMED 2 3.4 05:00:45 10° S 05:05:06 81° WSW 05:09:28 10° NNW
Cosmos 2333 Rocket 3.0 05:05:02 30° NW 05:05:21 30° NW 05:10:22 10° NNE
Okean 1-7 4.3 05:01:55 10° N 05:06:08 42° ENE 05:10:17 10° SSE
COSMOS 2428 4.2 05:06:53 18° NNW 05:06:53 18° NNW 05:10:11 10° N
CZ-2C R/B 4.1 05:03:01 10° SSW 05:07:15 39° W 05:07:45 38° W
Cosmos 1470 Rocket 3.5 05:02:56 10° SSW 05:07:21 60° WNW 05:11:46 10° N
Meteor 2-3 Rocket 3.7 05:01:53 10° S 05:07:41 89° W 05:13:26 10° N
Cosmos 1992 Rocket 4.4 05:02:58 10° S 05:08:08 64° ESE 05:13:19 10° NNE
Cosmos 1943 Rocket 4.0 05:04:14 10° N 05:09:05 28° NE 05:13:55 10° ESE
IDEFIX/ARIANE 42P 3.0 05:07:24 10° NNE 05:12:35 65° ESE 05:17:43 10° S
OPS 8737 4.4 05:10:37 20° SW 05:12:59 83° SE 05:16:20 10° NE
Intercosmos 25 3.5 05:10:09 10° N 05:13:17 59° E 05:16:59 10° SSE
Meteor 1-31 Rocket 4.3 05:10:22 10° N 05:11:59 21° NNW 05:11:59 21° NNW
USA 267 3.9 05:08:54 10° E 05:15:07 48° NNE 05:19:55 17° NW
Cosmos 1782 3.2 05:12:15 10° N 05:16:14 63° E 05:20:09 10° SSE
Feng Yun 1-1 Rocket 4.3 05:11:02 10° NNE 05:16:59 82° WNW 05:22:54 10° SSW
Cosmos 1503 Rocket 4.1 05:14:30 20° NW 05:17:52 51° WSW 05:22:50 10° S
Cosmos 1825 3.0 05:14:37 10° S 05:18:17 51° E 05:21:58 10° NNE
Cosmos 1302 Rocket 4.4 05:15:21 21° WSW 05:18:17 40° WNW 05:23:13 10° N
Thor Agena Rocket 3.9 05:19:00 10° SSE 05:24:02 64° ENE 05:29:02 10° N
Abrixas rocket 2.1 05:27:26 36° W 05:28:34 68° N 05:31:47 10° ENE
Cosmos 1606 2.6 05:25:44 10° N 05:29:32 87° W 05:33:21 10° S
Cosmos 1725 Rocket 4.5 05:24:44 10° NNW 05:30:18 36° W 05:35:50 10° SSW
Okean O Rocket 3.5 05:27:30 10° NNW 05:28:35 14° NNW 05:28:35 14° NNW
Cosmos 2219 Rocket 3.6 05:30:26 18° NW 05:31:05 18° NW 05:34:53 10° N
NOSS 3-1 (C) 4.0 05:24:35 13° NW 05:31:32 86° SW 05:39:57 10° SE
Cosmos 1703 Rocket 3.4 05:27:14 10° NNW 05:31:39 75° W 05:35:59 10° S
Cosmos 2123 Rocket 4.3 05:26:10 10° SW 05:31:59 41° WNW 05:37:53 10° N
PAYLOAD A 4.0 05:30:49 10° N 05:35:58 76° WNW 05:41:17 10° SSW
SL-16 R/B 2.3 05:32:08 10° SW 05:37:38 51° WNW 05:43:12 10° NNE
Cosmos 1869 Rocket 3.7 05:35:26 10° S 05:39:47 80° E 05:44:12 10° N
ATLAS 2AS CENTAUR R/B 4.2 05:33:08 10° NW 05:40:19 33° NNE 05:47:11 10° E
Cosmos 1603 4.1 05:36:35 10° SSW 05:42:10 69° ESE 05:47:50 10° NNE
Cosmos 968 Rocket 3.5 05:38:35 10° NNW 05:43:51 73° WSW 05:49:06 10° SSE
Cosmos 1862 4.1 05:45:32 10° S 05:49:24 55° E 05:53:18 10° NNE
Cosmos 1892 4.0 05:47:14 10° WSW 05:50:01 19° WNW 05:52:49 10° NNW
USA 229 DEB 4.3 05:44:44 13° NW 05:50:39 40° WSW 05:57:21 10° S
USA 229 4.3 05:44:49 13° NW 05:50:45 40° WSW 05:57:28 10° S
CZ-4B R/B 4.4 05:48:06 10° N 05:52:13 21° WNW 05:56:19 10° WSW
Cosmos 2034 Rocket 4.3 05:46:41 10° N 05:52:59 74° E 05:59:12 10° SSE
COSMO-SKYMED 1 3.6 05:49:43 10° SSW 05:53:22 26° W 05:57:02 10° NW
CZ-4 R/B 3.3 05:49:57 10° NNE 05:53:30 33° E 05:57:04 10° SSE
Cosmos 405 Rocket 2.5 05:50:19 10° NNW 05:54:01 79° W 05:57:44 10° S
MSX 3.9 05:48:29 10° NNE 05:54:19 90° WNW 06:00:05 10° SSW
NOSS 3-1 (A) 4.1 05:46:51 10° NW 05:54:22 84° SW 06:02:46 10° SSE
CZ-2C R/B 2.5 05:49:42 10° N 05:54:54 71° WNW 06:00:00 10° SSW
SJ-12 3.9 05:58:06 10° N 06:02:14 73° WNW 06:06:20 10° SSW
Cosmos 2369 Rocket 2.2 05:58:13 10° NNW 06:03:51 87° WSW 06:09:27 10° SSE
Cosmos 1408 3.7 06:18:42 10° SW 06:21:49 25° WNW 06:24:58 10° NNW
ERS-2 4.1 06:20:35 10° NNE 06:24:00 35° E 06:27:23 10° SSE
Cosmos 1464 Rocket 4.2 06:18:07 10° NNW 06:24:06 50° W 06:30:09 10° SSW
USA 215 3.4 06:18:21 10° NE 06:24:56 87° SE 06:31:30 10° SW
SMAP 3.1 06:21:57 10° NNE 06:26:39 86° WNW 06:31:18 10° SSW
